DLH4XA LYTV-EDDF

Flight info

Callsign DLH4XA
Flight time 2h 6m
Altitude 38000
Route NIK DCT GACMO DCT EDALA DCT KOMAR DCT PODET DCT SETAL DCT SIMBA DCT AKINI T161 DEBHI DEBHI1D
Aircraft A319/M-SDE2E3FGIJ1LORWXYZ/HB1

Departure

Time 2026-05-09 18:05
Airport Tivat Airport (LYTV)

Arrival

Time 2026-05-09 20:11
Airport Frankfurt Main Airport (EDDF)
Time Latitude Longitude Altitude Speed Heading
2026-05-09 17:29 42.41193 18.71707 8 ft 0 kts 180°
2026-05-09 17:57 42.41192 18.71707 8 ft 1 kts 180°
2026-05-09 17:58 42.41174 18.71691 8 ft 5 kts 215°
2026-05-09 17:58 42.41140 18.71712 7 ft 7 kts 142°
2026-05-09 17:58 42.41098 18.71760 6 ft 9 kts 140°
2026-05-09 17:58 42.41051 18.71815 7 ft 9 kts 140°
2026-05-09 17:59 42.41011 18.71855 8 ft 3 kts 155°
2026-05-09 17:59 42.40987 18.71843 7 ft 5 kts 219°
2026-05-09 17:59 42.40961 18.71800 6 ft 7 kts 225°
2026-05-09 17:59 42.40916 18.71799 7 ft 8 kts 146°
2026-05-09 18:00 42.40868 18.71854 5 ft 11 kts 136°
2026-05-09 18:00 42.40801 18.71932 2 ft 14 kts 139°
2026-05-09 18:00 42.40726 18.72021 2 ft 15 kts 139°
2026-05-09 18:00 42.40641 18.72122 0 ft 18 kts 140°
2026-05-09 18:01 42.40547 18.72230 2 ft 17 kts 139°
2026-05-09 18:01 42.40456 18.72337 3 ft 18 kts 138°
2026-05-09 18:01 42.40363 18.72447 6 ft 17 kts 139°
2026-05-09 18:01 42.40272 18.72553 6 ft 18 kts 139°
2026-05-09 18:02 42.40174 18.72667 5 ft 19 kts 139°
2026-05-09 18:02 42.40067 18.72793 2 ft 22 kts 139°
2026-05-09 18:02 42.39949 18.72935 1 ft 23 kts 138°
2026-05-09 18:02 42.39822 18.73080 0 ft 25 kts 139°
2026-05-09 18:03 42.39703 18.73221 3 ft 20 kts 139°
2026-05-09 18:03 42.39626 18.73264 2 ft 6 kts 169°
2026-05-09 18:03 42.39615 18.73296 3 ft 4 kts 63°
2026-05-09 18:03 42.39634 18.73300 3 ft 3 kts 338°
2026-05-09 18:04 42.39658 18.73275 3 ft 5 kts 317°
2026-05-09 18:04 42.39663 18.73269 3 ft 2 kts 317°
2026-05-09 18:04 42.39889 18.73002 0 ft 87 kts 319°
2026-05-09 18:04 42.40526 18.72254 52 ft 147 kts 319°
2026-05-09 18:05 42.41312 18.71335 662 ft 152 kts 318°
2026-05-09 18:05 42.41977 18.70240 1355 ft 155 kts 290°
2026-05-09 18:05 42.41992 18.68708 1796 ft 179 kts 251°
2026-05-09 18:05 42.41173 18.67320 2190 ft 204 kts 220°
2026-05-09 18:06 42.39988 18.66050 2623 ft 229 kts 219°
2026-05-09 18:06 42.38714 18.64702 3551 ft 233 kts 218°
2026-05-09 18:06 42.37429 18.63341 4558 ft 237 kts 219°
2026-05-09 18:06 42.36123 18.61948 5509 ft 241 kts 219°
2026-05-09 18:07 42.34796 18.60530 6474 ft 245 kts 218°
2026-05-09 18:07 42.33361 18.59259 7392 ft 250 kts 204°
2026-05-09 18:07 42.31671 18.58642 8259 ft 259 kts 185°
2026-05-09 18:07 42.29848 18.58783 9131 ft 266 kts 173°
2026-05-09 18:08 42.27993 18.59109 10081 ft 272 kts 173°
2026-05-09 18:08 42.26125 18.59426 10924 ft 277 kts 174°
2026-05-09 18:08 42.24195 18.59750 11775 ft 282 kts 174°
2026-05-09 18:08 42.22274 18.60442 12607 ft 291 kts 160°
2026-05-09 18:09 42.20421 18.61631 13442 ft 298 kts 157°
2026-05-09 18:09 42.18540 18.62859 14235 ft 303 kts 157°
2026-05-09 18:09 42.16622 18.64104 14959 ft 308 kts 158°
2026-05-09 18:09 42.14675 18.65365 15706 ft 313 kts 158°
2026-05-09 18:10 42.12728 18.66746 16445 ft 321 kts 147°
2026-05-09 18:10 42.11589 18.68106 16923 ft 328 kts 132°
2026-05-09 18:10 42.10219 18.71746 17870 ft 336 kts 99°
2026-05-09 18:10 42.10152 18.74873 18550 ft 335 kts 76°
2026-05-09 18:11 42.10917 18.77800 19181 ft 330 kts 53°
2026-05-09 18:11 42.12378 18.80111 19810 ft 323 kts 31°
2026-05-09 18:11 42.14376 18.81481 20060 ft 325 kts
2026-05-09 18:11 42.16606 18.81625 20564 ft 320 kts 345°
2026-05-09 18:12 42.18741 18.80827 21192 ft 320 kts 338°
2026-05-09 18:12 42.20932 18.80136 21852 ft 327 kts 346°
2026-05-09 18:12 42.23221 18.79887 22534 ft 335 kts 354°
2026-05-09 18:12 42.25561 18.79937 23197 ft 338 kts 355°
2026-05-09 18:13 42.27922 18.80026 23836 ft 343 kts 358°
2026-05-09 18:13 42.30305 18.80531 24381 ft 350 kts
2026-05-09 18:13 42.32709 18.81142 24948 ft 352 kts
2026-05-09 18:13 42.35126 18.81754 25512 ft 355 kts
2026-05-09 18:14 42.37572 18.82366 26085 ft 359 kts
2026-05-09 18:14 42.40033 18.82977 26599 ft 361 kts
2026-05-09 18:14 42.42514 18.83594 27151 ft 363 kts
2026-05-09 18:14 42.45010 18.84218 27679 ft 367 kts
2026-05-09 18:15 42.47535 18.84847 28205 ft 371 kts
2026-05-09 18:15 42.50084 18.85480 28728 ft 374 kts
2026-05-09 18:15 42.52655 18.86121 29259 ft 377 kts
2026-05-09 18:15 42.55247 18.86773 29777 ft 381 kts
2026-05-09 18:16 42.57859 18.87432 30254 ft 384 kts
2026-05-09 18:16 42.60495 18.88096 30690 ft 386 kts
2026-05-09 18:16 42.63147 18.88763 31106 ft 389 kts
2026-05-09 18:16 42.65819 18.89434 31546 ft 392 kts
2026-05-09 18:17 42.68509 18.90109 31973 ft 394 kts
2026-05-09 18:17 42.71215 18.90786 32391 ft 397 kts
2026-05-09 18:17 42.73934 18.91201 32786 ft 389 kts 352°
2026-05-09 18:17 42.76602 18.90921 33183 ft 381 kts 341°
2026-05-09 18:18 42.79145 18.89999 33452 ft 378 kts 332°
2026-05-09 18:18 42.81517 18.88464 33592 ft 378 kts 323°
2026-05-09 18:18 42.83675 18.86414 33797 ft 380 kts 318°
2026-05-09 18:18 42.85813 18.84272 34196 ft 382 kts 318°
2026-05-09 18:19 42.87957 18.82140 34606 ft 381 kts 318°
2026-05-09 18:19 42.92241 18.77894 35408 ft 381 kts 319°
2026-05-09 18:19 42.94385 18.75768 35752 ft 381 kts 318°
2026-05-09 18:20 42.96530 18.73631 36094 ft 382 kts 318°
2026-05-09 18:20 42.98671 18.71491 36456 ft 382 kts 318°
2026-05-09 18:20 43.00810 18.69351 36819 ft 381 kts 318°
2026-05-09 18:20 43.02948 18.67210 37165 ft 381 kts 318°
2026-05-09 18:21 43.05084 18.65064 37507 ft 381 kts 318°
2026-05-09 18:21 43.07216 18.62919 37839 ft 381 kts 318°
2026-05-09 18:21 43.09352 18.60769 38074 ft 381 kts 318°
2026-05-09 18:21 43.11479 18.58630 38106 ft 379 kts 318°
2026-05-09 18:22 43.15722 18.54374 38113 ft 378 kts 319°
2026-05-09 18:22 43.20021 18.50212 38116 ft 378 kts 319°
2026-05-09 18:23 43.24340 18.46086 38115 ft 378 kts 319°
2026-05-09 18:23 43.28645 18.41932 38113 ft 378 kts 319°
2026-05-09 18:24 43.32939 18.37766 38109 ft 378 kts 319°
2026-05-09 18:25 43.39376 18.31513 38124 ft 377 kts 319°
2026-05-09 18:25 43.43660 18.27333 38117 ft 377 kts 319°
2026-05-09 18:26 43.47942 18.23155 38114 ft 378 kts 319°
2026-05-09 18:26 43.52221 18.18967 38118 ft 377 kts 319°
2026-05-09 18:27 43.56496 18.14773 38135 ft 378 kts 319°
2026-05-09 18:27 43.60052 18.11281 38125 ft 377 kts 319°
2026-05-09 18:28 43.65020 18.06402 38116 ft 377 kts 319°
2026-05-09 18:28 43.68602 18.02874 38111 ft 378 kts 319°
2026-05-09 18:29 43.72880 17.98650 38113 ft 378 kts 319°
2026-05-09 18:29 43.77159 17.94430 38129 ft 378 kts 319°
2026-05-09 18:30 43.81435 17.90201 38119 ft 378 kts 319°
2026-05-09 18:30 43.85707 17.85968 38124 ft 377 kts 319°
2026-05-09 18:31 43.89970 17.81725 38125 ft 377 kts 318°
2026-05-09 18:31 43.94238 17.77479 38119 ft 378 kts 319°
2026-05-09 18:32 43.98504 17.73228 38118 ft 377 kts 318°
2026-05-09 18:32 44.02767 17.68970 38126 ft 378 kts 319°
2026-05-09 18:33 44.07038 17.64691 38129 ft 379 kts 318°
2026-05-09 18:33 44.11306 17.60405 38128 ft 378 kts 318°
2026-05-09 18:34 44.15574 17.56115 38120 ft 378 kts 318°
2026-05-09 18:34 44.19838 17.51833 38118 ft 378 kts 318°
2026-05-09 18:35 44.24096 17.47584 38142 ft 380 kts 320°
2026-05-09 18:35 44.28499 17.43493 38126 ft 381 kts 321°
2026-05-09 18:36 44.32945 17.39455 38112 ft 382 kts 321°
2026-05-09 18:36 44.37384 17.35379 38105 ft 382 kts 320°
2026-05-09 18:37 44.41803 17.31269 38099 ft 381 kts 320°
2026-05-09 18:37 44.46214 17.27149 38111 ft 382 kts 320°
2026-05-09 18:38 44.50637 17.23020 38107 ft 382 kts 320°
2026-05-09 18:38 44.55058 17.18892 38089 ft 382 kts 320°
2026-05-09 18:40 44.72767 17.02244 38077 ft 384 kts 320°
2026-05-09 18:41 44.77204 16.98059 38073 ft 384 kts 320°
2026-05-09 18:41 44.81647 16.93867 38086 ft 384 kts 320°
2026-05-09 18:42 44.86083 16.89675 38077 ft 384 kts 320°
2026-05-09 18:42 44.90513 16.85466 38076 ft 384 kts 320°
2026-05-09 18:43 44.94915 16.81269 38082 ft 385 kts 320°
2026-05-09 18:43 44.99365 16.77049 38073 ft 386 kts 320°
2026-05-09 18:44 45.03828 16.72835 38063 ft 386 kts 320°
2026-05-09 18:44 45.08285 16.68604 38070 ft 386 kts 320°
2026-05-09 18:45 45.12739 16.64360 38071 ft 386 kts 320°
2026-05-09 18:45 45.17194 16.60112 38084 ft 386 kts 319°
2026-05-09 18:46 45.21661 16.55852 38070 ft 387 kts 319°
2026-05-09 18:46 45.26128 16.51580 38064 ft 387 kts 319°
2026-05-09 18:47 45.30593 16.47299 38066 ft 387 kts 319°
2026-05-09 18:47 45.35060 16.43018 38060 ft 387 kts 319°
2026-05-09 18:48 45.39525 16.38729 38077 ft 387 kts 319°
2026-05-09 18:48 45.43990 16.34422 38062 ft 388 kts 319°
2026-05-09 18:49 45.48455 16.30111 38058 ft 388 kts 319°
2026-05-09 18:49 45.52923 16.25789 38052 ft 388 kts 319°
2026-05-09 18:50 45.57390 16.21457 38055 ft 388 kts 319°
2026-05-09 18:50 45.61857 16.17117 38065 ft 388 kts 319°
2026-05-09 18:51 45.66316 16.12771 38057 ft 388 kts 319°
2026-05-09 18:51 45.70777 16.08422 38058 ft 388 kts 319°
2026-05-09 18:52 45.75231 16.04065 38051 ft 388 kts 319°
2026-05-09 18:52 45.79652 15.99732 38045 ft 388 kts 319°
2026-05-09 18:53 45.84105 15.95365 38054 ft 388 kts 319°
2026-05-09 18:53 45.88559 15.90990 38077 ft 388 kts 319°
2026-05-09 18:54 45.93014 15.86604 38080 ft 388 kts 319°
2026-05-09 18:54 45.97460 15.82218 38081 ft 388 kts 319°
2026-05-09 18:55 46.01903 15.77818 38075 ft 388 kts 319°
2026-05-09 18:55 46.06342 15.73413 38080 ft 388 kts 319°
2026-05-09 18:56 46.10785 15.69001 38111 ft 387 kts 319°
2026-05-09 18:56 46.15216 15.64594 38112 ft 387 kts 319°
2026-05-09 18:57 46.19411 15.59843 38110 ft 382 kts 314°
2026-05-09 18:57 46.23405 15.54812 38106 ft 381 kts 314°
2026-05-09 18:58 46.27395 15.49780 38109 ft 380 kts 314°
2026-05-09 18:58 46.31380 15.44747 38105 ft 380 kts 314°
2026-05-09 18:59 46.35364 15.39707 38130 ft 380 kts 314°
2026-05-09 18:59 46.39345 15.34657 38123 ft 381 kts 314°
2026-05-09 19:00 46.43298 15.29630 38129 ft 381 kts 314°
2026-05-09 19:00 46.49262 15.22030 38128 ft 380 kts 314°
2026-05-09 19:01 46.53233 15.16957 38126 ft 380 kts 314°
2026-05-09 19:01 46.57225 15.11846 38124 ft 380 kts 314°
2026-05-09 19:02 46.61161 15.06791 38120 ft 380 kts 314°
2026-05-09 19:02 46.65135 15.01694 38117 ft 381 kts 314°
2026-05-09 19:03 46.69116 14.96568 38115 ft 382 kts 314°
2026-05-09 19:03 46.73098 14.91434 38118 ft 382 kts 314°
2026-05-09 19:04 46.77074 14.86289 38124 ft 382 kts 314°
2026-05-09 19:04 46.81047 14.81133 38128 ft 382 kts 314°
2026-05-09 19:05 46.85024 14.75967 38151 ft 383 kts 314°
2026-05-09 19:05 46.89006 14.70778 38145 ft 383 kts 314°
2026-05-09 19:06 46.92989 14.65588 38146 ft 384 kts 314°
2026-05-09 19:06 46.96979 14.60394 38149 ft 384 kts 314°
2026-05-09 19:07 47.00962 14.55187 38148 ft 384 kts 314°
2026-05-09 19:07 47.04938 14.49962 38145 ft 384 kts 314°
2026-05-09 19:08 47.08910 14.44727 38140 ft 384 kts 314°
2026-05-09 19:08 47.12893 14.39472 38145 ft 385 kts 314°
2026-05-09 19:09 47.16855 14.34244 38139 ft 386 kts 314°
2026-05-09 19:09 47.20878 14.28922 38139 ft 387 kts 314°
2026-05-09 19:10 47.24902 14.23661 38146 ft 388 kts 315°
2026-05-09 19:10 47.29037 14.18631 38126 ft 388 kts 317°
2026-05-09 19:11 47.33227 14.13632 38134 ft 388 kts 317°
2026-05-09 19:11 47.37396 14.08588 38156 ft 388 kts 317°
2026-05-09 19:12 47.41550 14.03503 38137 ft 388 kts 316°
2026-05-09 19:12 47.45705 13.98400 38124 ft 388 kts 316°
2026-05-09 19:13 47.49858 13.93293 38107 ft 388 kts 317°
2026-05-09 19:13 47.54010 13.88189 38106 ft 388 kts 316°
2026-05-09 19:14 47.58163 13.83064 38097 ft 389 kts 316°
2026-05-09 19:14 47.61608 13.78796 38109 ft 389 kts 317°
2026-05-09 19:15 47.65757 13.73658 38090 ft 389 kts 317°
2026-05-09 19:15 47.69911 13.68501 38080 ft 389 kts 317°
2026-05-09 19:16 47.74061 13.63336 38081 ft 389 kts 317°
2026-05-09 19:16 47.78218 13.58166 38061 ft 390 kts 317°
2026-05-09 19:17 47.82371 13.52981 38060 ft 390 kts 316°
2026-05-09 19:17 47.86521 13.47780 38084 ft 390 kts 317°
2026-05-09 19:18 47.90668 13.42568 38064 ft 390 kts 317°
2026-05-09 19:18 47.94818 13.37349 38061 ft 390 kts 317°
2026-05-09 19:19 47.98971 13.32127 38053 ft 390 kts 317°
2026-05-09 19:19 48.03120 13.26889 38038 ft 390 kts 316°
2026-05-09 19:20 48.07264 13.21639 38040 ft 391 kts 316°
2026-05-09 19:20 48.11411 13.16370 38038 ft 391 kts 316°
2026-05-09 19:21 48.15559 13.11098 38037 ft 391 kts 316°
2026-05-09 19:21 48.19711 13.05821 38040 ft 391 kts 316°
2026-05-09 19:22 48.23750 13.00368 38037 ft 389 kts 309°
2026-05-09 19:22 48.27329 12.94289 38031 ft 389 kts 309°
2026-05-09 19:23 48.30924 12.88205 38033 ft 389 kts 309°
2026-05-09 19:23 48.34523 12.82117 38035 ft 390 kts 309°
2026-05-09 19:24 48.38114 12.76007 38050 ft 390 kts 309°
2026-05-09 19:24 48.41701 12.69881 38044 ft 390 kts 309°
2026-05-09 19:25 48.45286 12.63738 38039 ft 390 kts 309°
2026-05-09 19:25 48.48871 12.57598 38042 ft 390 kts 309°
2026-05-09 19:26 48.52453 12.51446 38041 ft 390 kts 309°
2026-05-09 19:26 48.56029 12.45293 38041 ft 390 kts 309°
2026-05-09 19:27 48.59608 12.39125 38044 ft 390 kts 309°
2026-05-09 19:27 48.63179 12.32944 38043 ft 390 kts 309°
2026-05-09 19:28 48.66694 12.26850 37771 ft 377 kts 309°
2026-05-09 19:28 48.68397 12.23893 37491 ft 369 kts 309°
2026-05-09 19:28 48.70063 12.20995 37223 ft 362 kts 309°
2026-05-09 19:29 48.71701 12.18139 36951 ft 357 kts 309°
2026-05-09 19:29 48.73288 12.15268 36698 ft 354 kts 304°
2026-05-09 19:29 48.74536 12.12080 36436 ft 352 kts 294°
2026-05-09 19:29 48.75356 12.08594 36176 ft 352 kts 284°
2026-05-09 19:30 48.75789 12.04938 35922 ft 353 kts 280°
2026-05-09 19:30 48.76177 12.01260 35671 ft 354 kts 280°
2026-05-09 19:30 48.76572 11.97579 35420 ft 354 kts 280°
2026-05-09 19:30 48.76971 11.93892 35171 ft 355 kts 280°
2026-05-09 19:31 48.77371 11.90195 34930 ft 356 kts 280°
2026-05-09 19:31 48.77769 11.86489 34689 ft 356 kts 280°
2026-05-09 19:31 48.78166 11.82778 34440 ft 357 kts 279°
2026-05-09 19:31 48.78561 11.79068 34201 ft 357 kts 279°
2026-05-09 19:32 48.78958 11.75350 33948 ft 357 kts 279°
2026-05-09 19:32 48.79353 11.71624 33671 ft 358 kts 279°
2026-05-09 19:32 48.79745 11.67890 33398 ft 359 kts 279°
2026-05-09 19:32 48.80138 11.64145 33128 ft 360 kts 279°
2026-05-09 19:33 48.80533 11.60392 32860 ft 361 kts 279°
2026-05-09 19:33 48.80925 11.56624 32595 ft 362 kts 279°
2026-05-09 19:33 48.81316 11.52846 32333 ft 363 kts 279°
2026-05-09 19:33 48.81707 11.49054 32074 ft 364 kts 279°
2026-05-09 19:34 48.82099 11.45245 31817 ft 365 kts 279°
2026-05-09 19:34 48.82491 11.41411 31560 ft 372 kts 279°
2026-05-09 19:34 48.82890 11.37505 31310 ft 375 kts 279°
2026-05-09 19:34 48.83283 11.33639 31061 ft 376 kts 279°
2026-05-09 19:35 48.83679 11.29722 30810 ft 375 kts 279°
2026-05-09 19:35 48.84200 11.25858 30559 ft 374 kts 287°
2026-05-09 19:35 48.85214 11.22232 30319 ft 374 kts 298°
2026-05-09 19:35 48.86707 11.19005 30069 ft 374 kts 310°
2026-05-09 19:36 48.88574 11.16244 29707 ft 374 kts 316°
2026-05-09 19:36 48.90491 11.13583 29357 ft 373 kts 316°
2026-05-09 19:36 48.92398 11.10927 28928 ft 370 kts 316°
2026-05-09 19:36 48.94291 11.08290 28536 ft 368 kts 316°
2026-05-09 19:37 48.96171 11.05665 28134 ft 366 kts 316°
2026-05-09 19:37 48.98042 11.03045 27760 ft 365 kts 315°
2026-05-09 19:37 48.99904 11.00436 27398 ft 364 kts 315°
2026-05-09 19:37 49.01763 10.97827 27041 ft 363 kts 315°
2026-05-09 19:38 49.03615 10.95222 26706 ft 361 kts 315°
2026-05-09 19:38 49.05457 10.92628 26353 ft 360 kts 315°
2026-05-09 19:38 49.07289 10.90044 26005 ft 358 kts 316°
2026-05-09 19:38 49.09110 10.87474 25663 ft 356 kts 316°
2026-05-09 19:39 49.10921 10.84912 25320 ft 354 kts 316°
2026-05-09 19:39 49.12723 10.82365 25001 ft 352 kts 316°
2026-05-09 19:39 49.14519 10.79827 24670 ft 351 kts 316°
2026-05-09 19:39 49.16304 10.77297 24342 ft 349 kts 316°
2026-05-09 19:40 49.18076 10.74782 24089 ft 347 kts 316°
2026-05-09 19:40 49.19845 10.72268 24094 ft 347 kts 315°
2026-05-09 19:40 49.21574 10.69686 24096 ft 348 kts 314°
2026-05-09 19:40 49.23265 10.67038 24063 ft 349 kts 312°
2026-05-09 19:41 49.24942 10.64352 24064 ft 349 kts 312°
2026-05-09 19:41 49.26617 10.61650 24067 ft 350 kts 312°
2026-05-09 19:41 49.28296 10.58953 24064 ft 350 kts 312°
2026-05-09 19:41 49.29985 10.56260 24063 ft 350 kts 312°
2026-05-09 19:42 49.31678 10.53577 24064 ft 350 kts 313°
2026-05-09 19:42 49.33375 10.50893 24063 ft 350 kts 313°
2026-05-09 19:42 49.35069 10.48214 24065 ft 350 kts 313°
2026-05-09 19:42 49.36649 10.45378 24035 ft 349 kts 304°
2026-05-09 19:43 49.38041 10.42326 23963 ft 349 kts 303°
2026-05-09 19:43 49.39433 10.39282 23893 ft 348 kts 304°
2026-05-09 19:43 49.40827 10.36238 23676 ft 348 kts 304°
2026-05-09 19:43 49.42214 10.33205 23411 ft 346 kts 304°
2026-05-09 19:44 49.43594 10.30182 23159 ft 345 kts 303°
2026-05-09 19:44 49.44968 10.27164 22891 ft 344 kts 303°
2026-05-09 19:44 49.46333 10.24158 22618 ft 343 kts 303°
2026-05-09 19:44 49.47693 10.21156 22352 ft 341 kts 303°
2026-05-09 19:45 49.49047 10.18170 22087 ft 340 kts 303°
2026-05-09 19:45 49.50396 10.15193 21824 ft 338 kts 303°
2026-05-09 19:45 49.51739 10.12223 21568 ft 337 kts 303°
2026-05-09 19:45 49.53073 10.09269 21318 ft 336 kts 303°
2026-05-09 19:46 49.54406 10.06321 21063 ft 335 kts 303°
2026-05-09 19:46 49.55731 10.03380 20810 ft 334 kts 303°
2026-05-09 19:46 49.57052 10.00451 20560 ft 332 kts 303°
2026-05-09 19:46 49.58367 9.97528 20313 ft 331 kts 303°
2026-05-09 19:47 49.59674 9.94616 20063 ft 330 kts 303°
2026-05-09 19:47 49.60978 9.91716 19821 ft 328 kts 303°
2026-05-09 19:47 49.62274 9.88833 19588 ft 326 kts 303°
2026-05-09 19:47 49.63564 9.85956 19202 ft 327 kts 303°
2026-05-09 19:48 49.64855 9.83067 18725 ft 327 kts 303°
2026-05-09 19:48 49.66146 9.80173 18247 ft 328 kts 303°
2026-05-09 19:48 49.67431 9.77296 17696 ft 322 kts 303°
2026-05-09 19:48 49.68687 9.74484 17214 ft 315 kts 303°
2026-05-09 19:49 49.69924 9.71707 16765 ft 312 kts 303°
2026-05-09 19:49 49.71144 9.68961 16253 ft 309 kts 303°
2026-05-09 19:49 49.72355 9.66239 15748 ft 306 kts 303°
2026-05-09 19:49 49.73555 9.63538 15270 ft 305 kts 303°
2026-05-09 19:50 49.74748 9.60849 15004 ft 302 kts 303°
2026-05-09 19:50 49.75934 9.58175 14763 ft 300 kts 303°
2026-05-09 19:50 49.77112 9.55518 14521 ft 299 kts 303°
2026-05-09 19:50 49.78283 9.52867 14281 ft 298 kts 303°
2026-05-09 19:51 49.79450 9.50223 14045 ft 297 kts 303°
2026-05-09 19:51 49.80615 9.47588 13799 ft 296 kts 303°
2026-05-09 19:51 49.81772 9.44964 13524 ft 294 kts 303°
2026-05-09 19:51 49.82923 9.42351 13268 ft 293 kts 302°
2026-05-09 19:52 49.84067 9.39748 13007 ft 292 kts 302°
2026-05-09 19:52 49.85205 9.37157 12966 ft 290 kts 302°
2026-05-09 19:52 49.86223 9.34443 13044 ft 291 kts 292°
2026-05-09 19:52 49.86868 9.31474 13054 ft 291 kts 285°
2026-05-09 19:53 49.87433 9.28468 13050 ft 290 kts 285°
2026-05-09 19:53 49.88007 9.25467 13051 ft 291 kts 285°
2026-05-09 19:53 49.88584 9.22462 13050 ft 291 kts 285°
2026-05-09 19:53 49.89154 9.19504 13051 ft 291 kts 285°
2026-05-09 19:54 49.89730 9.16502 13049 ft 291 kts 285°
2026-05-09 19:54 49.90312 9.13456 13039 ft 291 kts 285°
2026-05-09 19:54 49.90878 9.10492 12856 ft 290 kts 285°
2026-05-09 19:54 49.91466 9.07391 12644 ft 313 kts 285°
2026-05-09 19:55 49.92114 9.04108 12381 ft 322 kts 290°
2026-05-09 19:55 49.93085 9.00962 12134 ft 324 kts 295°
2026-05-09 19:55 49.94103 8.97846 12022 ft 323 kts 295°
2026-05-09 19:56 49.96130 8.91603 12038 ft 324 kts 295°
2026-05-09 19:56 49.97141 8.88476 12037 ft 324 kts 295°
2026-05-09 19:56 49.98148 8.85349 12052 ft 324 kts 295°
2026-05-09 19:56 49.99154 8.82215 12054 ft 324 kts 295°
2026-05-09 19:57 50.00162 8.79083 12055 ft 324 kts 295°
2026-05-09 19:57 50.01167 8.75952 12055 ft 324 kts 295°
2026-05-09 19:57 50.01831 8.73878 12057 ft 324 kts 295°
2026-05-09 19:57 50.02836 8.70741 12056 ft 324 kts 295°
2026-05-09 19:58 50.03839 8.67606 12058 ft 324 kts 295°
2026-05-09 19:58 50.04841 8.64469 12057 ft 324 kts 295°
2026-05-09 19:58 50.05845 8.61331 12055 ft 324 kts 295°
2026-05-09 19:58 50.06847 8.58186 12058 ft 324 kts 295°
2026-05-09 19:59 50.07845 8.55044 12057 ft 324 kts 295°
2026-05-09 19:59 50.08844 8.51901 12058 ft 324 kts 295°
2026-05-09 19:59 50.09845 8.48757 12054 ft 324 kts 295°
2026-05-09 19:59 50.10573 8.45461 12056 ft 322 kts 278°
2026-05-09 20:00 50.10597 8.41990 11971 ft 322 kts 262°
2026-05-09 20:00 50.09957 8.38668 11548 ft 316 kts 248°
2026-05-09 20:00 50.09185 8.35605 11400 ft 293 kts 249°
2026-05-09 20:00 50.08472 8.32709 10955 ft 282 kts 249°
2026-05-09 20:01 50.07782 8.29870 10397 ft 279 kts 249°
2026-05-09 20:01 50.07101 8.27056 9814 ft 279 kts 249°
2026-05-09 20:01 50.06421 8.24242 9414 ft 277 kts 249°
2026-05-09 20:01 50.05746 8.21454 9018 ft 274 kts 249°
2026-05-09 20:02 50.05072 8.18677 8815 ft 274 kts 249°
2026-05-09 20:02 50.04404 8.15930 8675 ft 275 kts 249°
2026-05-09 20:02 50.03728 8.13151 8541 ft 274 kts 249°
2026-05-09 20:03 50.02466 8.07976 8138 ft 241 kts 249°
2026-05-09 20:03 50.01872 8.05551 8065 ft 240 kts 249°
2026-05-09 20:03 50.01272 8.03129 8009 ft 240 kts 247°
2026-05-09 20:03 50.00306 8.01051 7962 ft 240 kts 218°
2026-05-09 20:04 49.98777 8.00059 7882 ft 242 kts 187°
2026-05-09 20:04 49.97104 8.00311 7731 ft 244 kts 164°
2026-05-09 20:04 49.95560 8.01472 7191 ft 255 kts 144°
2026-05-09 20:04 49.94363 8.03538 6665 ft 259 kts 120°
2026-05-09 20:05 49.93792 8.06099 6395 ft 247 kts 98°
2026-05-09 20:05 49.93843 8.08730 6100 ft 244 kts 78°
2026-05-09 20:05 49.94388 8.11228 5764 ft 244 kts 70°
2026-05-09 20:05 49.94991 8.13679 5418 ft 242 kts 70°
2026-05-09 20:06 49.95584 8.16108 5085 ft 240 kts 70°
2026-05-09 20:06 49.96161 8.18477 4746 ft 234 kts 71°
2026-05-09 20:06 49.96722 8.20786 4420 ft 224 kts 71°
2026-05-09 20:06 49.97259 8.22997 4112 ft 214 kts 70°
2026-05-09 20:07 49.97776 8.25128 3814 ft 207 kts 70°
2026-05-09 20:07 49.98276 8.27186 3527 ft 200 kts 71°
2026-05-09 20:07 49.98757 8.29175 3252 ft 194 kts 71°
2026-05-09 20:07 49.99223 8.31099 3020 ft 186 kts 71°
2026-05-09 20:08 49.99673 8.32962 2722 ft 182 kts 70°
2026-05-09 20:08 50.00553 8.36605 2205 ft 178 kts 70°
2026-05-09 20:08 50.00974 8.38349 1968 ft 168 kts 69°
2026-05-09 20:09 50.01373 8.40007 1732 ft 161 kts 69°
2026-05-09 20:09 50.01759 8.41608 1501 ft 155 kts 68°
2026-05-09 20:09 50.02118 8.43100 1288 ft 137 kts 69°
2026-05-09 20:09 50.02438 8.44431 1106 ft 127 kts 67°
2026-05-09 20:10 50.02742 8.45695 931 ft 123 kts 67°
2026-05-09 20:10 50.03041 8.46930 714 ft 121 kts 66°
2026-05-09 20:10 50.03334 8.48160 551 ft 120 kts 66°
2026-05-09 20:10 50.03627 8.49382 405 ft 121 kts 66°
2026-05-09 20:11 50.03917 8.50589 326 ft 110 kts 69°
2026-05-09 20:11 50.04136 8.51506 333 ft 67 kts 70°
2026-05-09 20:11 50.04235 8.51980 339 ft 35 kts 82°
2026-05-09 20:11 50.04231 8.52215 341 ft 10 kts 98°
2026-05-09 20:12 50.04226 8.52259 351 ft 0 kts 101°
2026-05-09 20:12 50.04225 8.52269 350 ft 3 kts 101°
2026-05-09 20:12 50.04218 8.52329 343 ft 7 kts 100°
2026-05-09 20:13 50.04209 8.52413 349 ft 9 kts 99°
2026-05-09 20:13 50.04197 8.52520 348 ft 11 kts 99°
2026-05-09 20:13 50.04196 8.52634 349 ft 11 kts 82°
2026-05-09 20:13 50.04219 8.52747 356 ft 11 kts 69°
2026-05-09 20:14 50.04247 8.52871 356 ft 14 kts 68°
2026-05-09 20:14 50.04282 8.53019 354 ft 15 kts 69°
2026-05-09 20:14 50.04318 8.53169 364 ft 13 kts 68°
2026-05-09 20:14 50.04346 8.53284 368 ft 9 kts 70°
2026-05-09 20:15 50.04366 8.53368 370 ft 7 kts 69°
2026-05-09 20:15 50.04382 8.53435 373 ft 9 kts 74°
2026-05-09 20:15 50.04398 8.53570 376 ft 15 kts 82°
2026-05-09 20:15 50.04410 8.53741 376 ft 17 kts 84°
2026-05-09 20:16 50.04423 8.53933 376 ft 19 kts 83°
2026-05-09 20:16 50.04437 8.54143 375 ft 20 kts 84°
2026-05-09 20:16 50.04452 8.54363 373 ft 18 kts 84°
2026-05-09 20:16 50.04434 8.54581 367 ft 22 kts 113°
2026-05-09 20:17 50.04340 8.54750 361 ft 21 kts 147°
2026-05-09 20:17 50.04202 8.54834 356 ft 19 kts 161°
2026-05-09 20:17 50.04078 8.54905 351 ft 15 kts 159°
2026-05-09 20:17 50.04021 8.55015 353 ft 14 kts 83°
2026-05-09 20:18 50.04054 8.55169 358 ft 16 kts 70°
2026-05-09 20:18 50.04095 8.55341 354 ft 18 kts 70°
2026-05-09 20:18 50.04143 8.55539 354 ft 20 kts 70°
2026-05-09 20:18 50.04188 8.55725 357 ft 16 kts 70°
2026-05-09 20:19 50.04212 8.55826 356 ft 9 kts 69°
2026-05-09 20:19 50.04236 8.55924 356 ft 11 kts 69°
2026-05-09 20:19 50.04255 8.56002 361 ft 0 kts 69°
2026-05-09 20:19 50.04277 8.56093 360 ft 24 kts 70°
2026-05-09 20:20 50.04329 8.56313 362 ft 19 kts 70°
2026-05-09 20:20 50.04377 8.56516 359 ft 20 kts 70°
2026-05-09 20:20 50.04424 8.56714 359 ft 18 kts 70°
2026-05-09 20:20 50.04464 8.56884 362 ft 17 kts 69°
2026-05-09 20:21 50.04509 8.57070 357 ft 20 kts 69°
2026-05-09 20:21 50.04560 8.57280 361 ft 20 kts 69°
2026-05-09 20:21 50.04610 8.57492 358 ft 20 kts 70°
2026-05-09 20:21 50.04660 8.57704 361 ft 21 kts 69°
2026-05-09 20:22 50.04713 8.57893 360 ft 16 kts 50°
2026-05-09 20:22 50.04771 8.58010 358 ft 13 kts 69°
2026-05-09 20:22 50.04804 8.58145 365 ft 13 kts 69°
2026-05-09 20:22 50.04836 8.58286 361 ft 15 kts 70°
2026-05-09 20:23 50.04874 8.58446 360 ft 17 kts 68°
2026-05-09 20:23 50.04917 8.58623 360 ft 18 kts 70°
2026-05-09 20:23 50.04960 8.58805 364 ft 18 kts 71°
2026-05-09 20:23 50.04981 8.58908 362 ft 4 kts 99°
2026-05-09 20:24 50.04964 8.58922 363 ft 2 kts 164°
2026-05-09 20:24 50.04955 8.58927 361 ft 1 kts 161°
2026-05-09 20:24 50.04947 8.58932 362 ft 3 kts 159°
2026-05-09 20:24 50.04937 8.58938 364 ft 1 kts 159°
2026-05-09 20:25 50.04931 8.58942 365 ft 1 kts 160°
2026-05-09 20:25 50.04927 8.58943 365 ft 1 kts 160°
2026-05-09 20:25 50.04927 8.58944 365 ft 0 kts 160°